"Sample Date","Sample Time","Sample Value","Units","Flow Rate","Sample Interval","Number Channels","Micron Size 0","Counts/Channel 0","Micron Size 1","Counts/Channel 1","Micron Size 2","Counts/Channel 2","Micron Size 3","Counts/Channel 3","Micron Size 4","Counts/Channel 4","Micron Size 5","Counts/Channel 5","Micron Size 6","Counts/Channel 6","Micron Size 7","Counts/Channel 7","Micron Size 8","Counts/Channel 8","Micron Size 9","Counts/Channel 9","Micron Size 10","Counts/Channel 10","Micron Size 11","Counts/Channel 11","Micron Size 12","Counts/Channel 12","Micron Size 13","Counts/Channel 13","Micron Size 14","Counts/Channel 14","Micron Size 15","Counts/Channel 15","Micron Size 16","Counts/Channel 16","Micron Size 17","Counts/Channel 17","Micron Size 18","Counts/Channel 18","Micron Size 19","Counts/Channel 19","Micron Size 20","Counts/Channel 20","Micron Size 21","Counts/Channel 21","Micron Size 22","Counts/Channel 22","Micron Size 23","Counts/Channel 23","Micron Size 24","Counts/Channel 24","Micron Size 25","Counts/Channel 25","Micron Size 26","Counts/Channel 26","Micron Size 27","Counts/Channel 27","Micron Size 28","Counts/Channel 28","Micron Size 29","Counts/Channel 29","Micron Size 30","Counts/Channel 30","Micron Size 31","Counts/Channel 31"
"03/11/08","23:00:00",27440.000,"cc",28381.404,6.00,6,0.100,20335.000,0.200,2295.000,0.300,1898.000,0.500,2193.000,1.000,719.000,5.000,0
"03/11/08","23:00:06",27500.000,"cc",28260.180,6.00,6,0.100,20574.000,0.200,2241.000,0.300,1800.000,0.500,2131.000,1.000,754.000,5.000,0
"03/11/08","23:00:12",27546.000,"cc",28325.199,6.00,6,0.100,20382.000,0.200,2268.000,0.300,1870.000,0.500,2231.000,1.000,795.000,5.000,0
"03/11/08","23:00:18",27680.000,"cc",28283.217,6.00,6,0.100,20371.000,0.200,2385.000,0.300,1909.000,0.500,2253.000,1.000,762.000,5.000,0
"03/11/08","23:00:24",27820.000,"cc",28413.037,6.00,6,0.100,20579.000,0.200,2299.000,0.300,1896.000,0.500,2236.000,1.000,810.000,5.000,0
"03/11/08","23:00:30",27461.000,"cc",28316.725,6.00,6,0.100,20415.000,0.200,2258.000,0.300,1799.000,0.500,2224.000,1.000,765.000,5.000,0
"03/11/08","23:00:36",28103.000,"cc",28297.494,6.00,6,0.100,20643.000,0.200,2411.000,0.300,1927.000,0.500,2358.000,1.000,764.000,5.000,0
"03/11/08","23:00:42",27867.000,"cc",28210.387,6.00,6,0.100,20675.000,0.200,2354.000,0.300,1870.000,0.500,2199.000,1.000,769.000,5.000,0
"03/11/08","23:00:48",27827.000,"cc",28365.170,6.00,6,0.100,20794.000,0.200,2246.000,0.300,1805.000,0.500,2212.000,1.000,770.000,5.000,0
"03/11/08","23:00:54",27738.000,"cc",28315.322,6.00,6,0.100,20685.000,0.200,2214.000,0.300,1826.000,0.500,2270.000,1.000,743.000,5.000,0
"03/11/08","23:01:00",27526.000,"cc",28251.049,6.00,6,0.100,20457.000,0.200,2327.000,0.300,1841.000,0.500,2165.000,1.000,736.000,5.000,0
"03/11/08","23:01:06",27749.000,"cc",28310.244,6.00,6,0.100,20598.000,0.200,2288.000,0.300,1917.000,0.500,2228.000,1.000,718.000,5.000,0
"03/11/08","23:01:12",27668.000,"cc",28292.838,6.00,6,0.100,20550.000,0.200,2260.000,0.300,1834.000,0.500,2280.000,1.000,744.000,5.000,0
"03/11/08","23:01:18",27716.000,"cc",28281.498,6.00,6,0.100,20660.000,0.200,2349.000,0.300,1780.000,0.500,2196.000,1.000,731.000,5.000,0
"03/11/08","23:01:24",28105.000,"cc",28356.315,6.00,6,0.100,20936.000,0.200,2353.000,0.300,1839.000,0.500,2219.000,1.000,758.000,5.000,0
"03/11/08","23:01:30",27916.000,"cc",28353.709,6.00,6,0.100,20600.000,0.200,2338.000,0.300,1881.000,0.500,2306.000,1.000,791.000,5.000,0
"03/11/08","23:01:36",27662.000,"cc",28279.535,6.00,6,0.100,20640.000,0.200,2273.000,0.300,1855.000,0.500,2156.000,1.000,738.000,5.000,0
"03/11/08","23:01:42",27524.000,"cc",28262.625,6.00,6,0.100,20609.000,0.200,2270.000,0.300,1761.000,0.500,2177.000,1.000,707.000,5.000,0
"03/11/08","23:01:48",27365.000,"cc",28360.707,6.00,6,0.100,20357.000,0.200,2248.000,0.300,1805.000,0.500,2211.000,1.000,744.000,5.000,0
"03/11/08","23:01:54",27876.000,"cc",28293.584,6.00,6,0.100,20775.000,0.200,2280.000,0.300,1817.000,0.500,2315.000,1.000,689.000,5.000,0
"03/11/08","23:02:00",27480.000,"cc",28364.023,6.00,6,0.100,20598.000,0.200,2228.000,0.300,1788.000,0.500,2176.000,1.000,690.000,5.000,0
"03/11/08","23:02:06",27535.000,"cc",28284.902,6.00,6,0.100,20417.000,0.200,2279.000,0.300,1890.000,0.500,2228.000,1.000,721.000,5.000,0
"03/11/08","23:02:12",27766.000,"cc",28370.014,6.00,6,0.100,20643.000,0.200,2338.000,0.300,1906.000,0.500,2187.000,1.000,692.000,5.000,0
"03/11/08","23:02:18",27797.000,"cc",28155.375,6.00,6,0.100,20738.000,0.200,2375.000,0.300,1787.000,0.500,2181.000,1.000,716.000,5.000,0
"03/11/08","23:02:24",27771.000,"cc",28278.545,6.00,6,0.100,20626.000,0.200,2260.000,0.300,1906.000,0.500,2227.000,1.000,752.000,5.000,0
"03/11/08","23:02:30",28061.000,"cc",28459.131,6.00,6,0.100,20826.000,0.200,2239.000,0.300,1960.000,0.500,2302.000,1.000,734.000,5.000,0
"03/11/08","23:02:36",27631.000,"cc",28240.898,6.00,6,0.100,20473.000,0.200,2392.000,0.300,1848.000,0.500,2178.000,1.000,740.000,5.000,0
"03/11/08","23:02:42",27682.000,"cc",28404.088,6.00,6,0.100,20468.000,0.200,2327.000,0.300,1806.000,0.500,2344.000,1.000,737.000,5.000,0
"03/11/08","23:02:48",27659.000,"cc",28366.592,6.00,6,0.100,20328.000,0.200,2365.000,0.300,1872.000,0.500,2324.000,1.000,770.000,5.000,0
"03/11/08","23:02:54",27515.000,"cc",28307.514,6.00,6,0.100,20367.000,0.200,2301.000,0.300,1928.000,0.500,2172.000,1.000,747.000,5.000,0
"03/11/08","23:03:00",27484.000,"cc",28431.840,6.00,6,0.100,20340.000,0.200,2307.000,0.300,1804.000,0.500,2290.000,1.000,743.000,5.000,0
"03/11/08","23:03:06",27252.000,"cc",28288.854,6.00,6,0.100,20229.000,0.200,2305.000,0.300,1818.000,0.500,2153.000,1.000,747.000,5.000,0
"03/11/08","23:03:12",27669.000,"cc",28275.643,6.00,6,0.100,20502.000,0.200,2259.000,0.300,1915.000,0.500,2284.000,1.000,709.000,5.000,0
"03/11/08","23:03:18",27560.000,"cc",28234.461,6.00,6,0.100,20489.000,0.200,2235.000,0.300,1791.000,0.500,2325.000,1.000,720.000,5.000,0
"03/11/08","23:03:24",27526.000,"cc",28384.861,6.00,6,0.100,20311.000,0.200,2229.000,0.300,1891.000,0.500,2328.000,1.000,767.000,5.000,0
"03/11/08","23:03:30",27660.000,"cc",28298.731,6.00,6,0.100,20448.000,0.200,2310.000,0.300,1864.000,0.500,2209.000,1.000,829.000,5.000,0
"03/11/08","23:03:36",27310.000,"cc",28249.248,6.00,6,0.100,20218.000,0.200,2249.000,0.300,1893.000,0.500,2198.000,1.000,752.000,5.000,0
"03/11/08","23:03:42",27312.000,"cc",28250.502,6.00,6,0.100,20183.000,0.200,2355.000,0.300,1821.000,0.500,2224.000,1.000,729.000,5.000,0
"03/11/08","23:03:48",27714.000,"cc",28320.115,6.00,6,0.100,20553.000,0.200,2289.000,0.300,1856.000,0.500,2287.000,1.000,729.000,5.000,0
"03/11/08","23:03:54",27745.000,"cc",28339.565,6.00,6,0.100,20566.000,0.200,2330.000,0.300,1908.000,0.500,2203.000,1.000,738.000,5.000,0
"03/11/08","23:04:00",27457.000,"cc",28297.197,6.00,6,0.100,20358.000,0.200,2274.000,0.300,1891.000,0.500,2208.000,1.000,726.000,5.000,0
"03/11/08","23:04:06",27859.000,"cc",28385.816,6.00,6,0.100,20747.000,0.200,2218.000,0.300,1908.000,0.500,2198.000,1.000,788.000,5.000,0
"03/11/08","23:04:12",27687.000,"cc",28308.953,6.00,6,0.100,20589.000,0.200,2251.000,0.300,1835.000,0.500,2271.000,1.000,741.000,5.000,0
"03/11/08","23:04:18",27480.000,"cc",28360.066,6.00,6,0.100,20397.000,0.200,2282.000,0.300,1853.000,0.500,2248.000,1.000,700.000,5.000,0
"03/11/08","23:04:24",27302.000,"cc",28348.852,6.00,6,0.100,20217.000,0.200,2281.000,0.300,1881.000,0.500,2193.000,1.000,730.000,5.000,0
"03/11/08","23:04:30",27694.000,"cc",28241.768,6.00,6,0.100,20532.000,0.200,2262.000,0.300,1845.000,0.500,2296.000,1.000,759.000,5.000,0
"03/11/08","23:04:36",27357.000,"cc",28355.586,6.00,6,0.100,20203.000,0.200,2329.000,0.300,1859.000,0.500,2257.000,1.000,709.000,5.000,0
"03/11/08","23:04:42",27096.000,"cc",28345.361,6.00,6,0.100,20147.000,0.200,2238.000,0.300,1809.000,0.500,2192.000,1.000,710.000,5.000,0
"03/11/08","23:04:48",27021.000,"cc",28297.379,6.00,6,0.100,20042.000,0.200,2279.000,0.300,1823.000,0.500,2124.000,1.000,753.000,5.000,0
"03/11/08","23:04:54",27216.000,"cc",28261.410,6.00,6,0.100,20087.000,0.200,2255.000,0.300,1891.000,0.500,2270.000,1.000,713.000,5.000,0
"03/11/08","23:05:00",27466.000,"cc",28361.445,6.00,6,0.100,20246.000,0.200,2375.000,0.300,1856.000,0.500,2290.000,1.000,699.000,5.000,0
"03/11/08","23:05:06",27265.000,"cc",28319.150,6.00,6,0.100,20195.000,0.200,2320.000,0.300,1784.000,0.500,2222.000,1.000,744.000,5.000,0
"03/11/08","23:05:12",27471.000,"cc",28404.740,6.00,6,0.100,20394.000,0.200,2268.000,0.300,1803.000,0.500,2264.000,1.000,742.000,5.000,0
"03/11/08","23:05:18",27477.000,"cc",28312.197,6.00,6,0.100,20425.000,0.200,2323.000,0.300,1774.000,0.500,2218.000,1.000,737.000,5.000,0
"03/11/08","23:05:24",27719.000,"cc",28333.559,6.00,6,0.100,20459.000,0.200,2300.000,0.300,1880.000,0.500,2323.000,1.000,757.000,5.000,0
"03/11/08","23:05:30",27513.000,"cc",28227.898,6.00,6,0.100,20321.000,0.200,2323.000,0.300,1866.000,0.500,2235.000,1.000,768.000,5.000,0
"03/11/08","23:05:36",27082.000,"cc",28231.334,6.00,6,0.100,19979.000,0.200,2294.000,0.300,1877.000,0.500,2213.000,1.000,719.000,5.000,0
"03/11/08","23:05:42",27285.000,"cc",28324.418,6.00,6,0.100,20172.000,0.200,2302.000,0.300,1833.000,0.500,2227.000,1.000,751.000,5.000,0
"03/11/08","23:05:48",27394.000,"cc",28255.570,6.00,6,0.100,20365.000,0.200,2270.000,0.300,1786.000,0.500,2203.000,1.000,770.000,5.000,0
"03/11/08","23:05:54",27536.000,"cc",28259.098,6.00,6,0.100,20186.000,0.200,2298.000,0.300,1869.000,0.500,2372.000,1.000,811.000,5.000,0
"03/11/08","23:06:00",27669.000,"cc",28364.160,6.00,6,0.100,20502.000,0.200,2293.000,0.300,1908.000,0.500,2233.000,1.000,733.000,5.000,0
"03/11/08","23:06:06",27467.000,"cc",28340.981,6.00,6,0.100,20342.000,0.200,2258.000,0.300,1864.000,0.500,2273.000,1.000,730.000,5.000,0
"03/11/08","23:06:12",27350.000,"cc",28340.897,6.00,6,0.100,20219.000,0.200,2306.000,0.300,1846.000,0.500,2243.000,1.000,736.000,5.000,0
"03/11/08","23:06:18",27264.000,"cc",28216.670,6.00,6,0.100,20162.000,0.200,2321.000,0.300,1855.000,0.500,2244.000,1.000,682.000,5.000,0
"03/11/08","23:06:24",27614.000,"cc",28176.754,6.00,6,0.100,20466.000,0.200,2332.000,0.300,1853.000,0.500,2251.000,1.000,712.000,5.000,0
"03/11/08","23:06:30",27376.000,"cc",28375.229,6.00,6,0.100,20240.000,0.200,2312.000,0.300,1883.000,0.500,2243.000,1.000,698.000,5.000,0
"03/11/08","23:06:36",27418.000,"cc",28314.871,6.00,6,0.100,20242.000,0.200,2306.000,0.300,1872.000,0.500,2235.000,1.000,763.000,5.000,0
"03/11/08","23:06:42",27289.000,"cc",28390.701,6.00,6,0.100,20146.000,0.200,2293.000,0.300,1792.000,0.500,2264.000,1.000,794.000,5.000,0
"03/11/08","23:06:48",27107.000,"cc",28309.227,6.00,6,0.100,20001.000,0.200,2260.000,0.300,1867.000,0.500,2228.000,1.000,751.000,5.000,0
"03/11/08","23:06:54",27399.000,"cc",28354.361,6.00,6,0.100,20227.000,0.200,2338.000,0.300,1844.000,0.500,2203.000,1.000,787.000,5.000,0
"03/11/08","23:07:00",27442.000,"cc",28359.732,6.00,6,0.100,20309.000,0.200,2245.000,0.300,1885.000,0.500,2261.000,1.000,742.000,5.000,0
"03/11/08","23:07:06",27284.000,"cc",28297.240,6.00,6,0.100,20143.000,0.200,2335.000,0.300,1793.000,0.500,2238.000,1.000,775.000,5.000,0
"03/11/08","23:07:12",27403.000,"cc",28306.256,6.00,6,0.100,20153.000,0.200,2310.000,0.300,1853.000,0.500,2294.000,1.000,793.000,5.000,0
"03/11/08","23:07:18",27194.000,"cc",28225.369,6.00,6,0.100,20089.000,0.200,2282.000,0.300,1844.000,0.500,2235.000,1.000,744.000,5.000,0
"03/11/08","23:07:24",27451.000,"cc",28396.072,6.00,6,0.100,20215.000,0.200,2260.000,0.300,1839.000,0.500,2395.000,1.000,742.000,5.000,0
"03/11/08","23:07:30",27434.000,"cc",28261.422,6.00,6,0.100,20126.000,0.200,2312.000,0.300,1939.000,0.500,2274.000,1.000,783.000,5.000,0
"03/11/08","23:07:36",26997.000,"cc",28316.412,6.00,6,0.100,19901.000,0.200,2264.000,0.300,1867.000,0.500,2237.000,1.000,728.000,5.000,0
"03/11/08","23:07:42",27225.000,"cc",28329.027,6.00,6,0.100,20033.000,0.200,2305.000,0.300,1892.000,0.500,2276.000,1.000,719.000,5.000,0
"03/11/08","23:07:48",27089.000,"cc",28438.432,6.00,6,0.100,19917.000,0.200,2279.000,0.300,1835.000,0.500,2340.000,1.000,718.000,5.000,0
"03/11/08","23:07:54",27226.000,"cc",28251.645,6.00,6,0.100,20019.000,0.200,2294.000,0.300,1923.000,0.500,2277.000,1.000,713.000,5.000,0
"03/11/08","23:08:00",27625.000,"cc",28350.023,6.00,6,0.100,20306.000,0.200,2254.000,0.300,1930.000,0.500,2279.000,1.000,856.000,5.000,0
"03/11/08","23:08:06",26960.000,"cc",28366.039,6.00,6,0.100,19918.000,0.200,2269.000,0.300,1829.000,0.500,2163.000,1.000,781.000,5.000,0
"03/11/08","23:08:12",26892.000,"cc",28281.170,6.00,6,0.100,19877.000,0.200,2175.000,0.300,1821.000,0.500,2268.000,1.000,751.000,5.000,0
"03/11/08","23:08:18",27087.000,"cc",28373.211,6.00,6,0.100,20033.000,0.200,2204.000,0.300,1836.000,0.500,2269.000,1.000,745.000,5.000,0
"03/11/08","23:08:24",27057.000,"cc",28283.092,6.00,6,0.100,19942.000,0.200,2229.000,0.300,1784.000,0.500,2308.000,1.000,794.000,5.000,0
"03/11/08","23:08:30",27181.000,"cc",28188.016,6.00,6,0.100,20120.000,0.200,2221.000,0.300,1788.000,0.500,2277.000,1.000,775.000,5.000,0
"03/11/08","23:08:36",27036.000,"cc",28372.621,6.00,6,0.100,19863.000,0.200,2251.000,0.300,1904.000,0.500,2250.000,1.000,768.000,5.000,0
"03/11/08","23:08:42",27149.000,"cc",28292.680,6.00,6,0.100,20036.000,0.200,2335.000,0.300,1792.000,0.500,2236.000,1.000,750.000,5.000,0
"03/11/08","23:08:48",27362.000,"cc",28303.627,6.00,6,0.100,20408.000,0.200,2183.000,0.300,1769.000,0.500,2237.000,1.000,765.000,5.000,0
"03/11/08","23:08:54",27320.000,"cc",28353.094,6.00,6,0.100,20066.000,0.200,2325.000,0.300,1914.000,0.500,2272.000,1.000,743.000,5.000,0
"03/11/08","23:09:00",27135.000,"cc",28260.779,6.00,6,0.100,20058.000,0.200,2302.000,0.300,1832.000,0.500,2196.000,1.000,747.000,5.000,0
"03/11/08","23:09:06",27471.000,"cc",28380.137,6.00,6,0.100,20203.000,0.200,2292.000,0.300,1899.000,0.500,2315.000,1.000,762.000,5.000,0
"03/11/08","23:09:12",27316.000,"cc",28296.352,6.00,6,0.100,20214.000,0.200,2288.000,0.300,1799.000,0.500,2280.000,1.000,735.000,5.000,0
"03/11/08","23:09:18",27354.000,"cc",28351.102,6.00,6,0.100,20294.000,0.200,2218.000,0.300,1809.000,0.500,2266.000,1.000,767.000,5.000,0
"03/11/08","23:09:24",27295.000,"cc",28298.365,6.00,6,0.100,20115.000,0.200,2297.000,0.300,1909.000,0.500,2245.000,1.000,729.000,5.000,0
"03/11/08","23:09:30",27005.000,"cc",28283.168,6.00,6,0.100,19756.000,0.200,2329.000,0.300,1905.000,0.500,2272.000,1.000,743.000,5.000,0
"03/11/08","23:09:36",27148.000,"cc",28276.883,6.00,6,0.100,20159.000,0.200,2193.000,0.300,1859.000,0.500,2228.000,1.000,709.000,5.000,0
"03/11/08","23:09:42",27422.000,"cc",28306.100,6.00,6,0.100,20453.000,0.200,2256.000,0.300,1762.000,0.500,2238.000,1.000,713.000,5.000,0
"03/11/08","23:09:48",27314.000,"cc",28348.002,6.00,6,0.100,20043.000,0.200,2323.000,0.300,1874.000,0.500,2336.000,1.000,738.000,5.000,0
"03/11/08","23:09:54",27463.000,"cc",28360.742,6.00,6,0.100,20247.000,0.200,2288.000,0.300,1883.000,0.500,2286.000,1.000,759.000,5.000,0
"03/11/08","23:10:00",27098.000,"cc",28259.479,6.00,6,0.100,19899.000,0.200,2344.000,0.300,1826.000,0.500,2299.000,1.000,730.000,5.000,0
"03/11/08","23:10:06",27173.000,"cc",28279.762,6.00,6,0.100,19880.000,0.200,2377.000,0.300,1831.000,0.500,2346.000,1.000,739.000,5.000,0
"03/11/08","23:10:12",27096.000,"cc",28349.838,6.00,6,0.100,20069.000,0.200,2201.000,0.300,1846.000,0.500,2242.000,1.000,738.000,5.000,0
"03/11/08","23:10:18",27102.000,"cc",28257.752,6.00,6,0.100,19889.000,0.200,2267.000,0.300,1884.000,0.500,2280.000,1.000,782.000,5.000,0
"03/11/08","23:10:24",26870.000,"cc",28453.734,6.00,6,0.100,19814.000,0.200,2235.000,0.300,1825.000,0.500,2266.000,1.000,730.000,5.000,0
"03/11/08","23:10:30",26922.000,"cc",28308.109,6.00,6,0.100,19862.000,0.200,2288.000,0.300,1809.000,0.500,2208.000,1.000,755.000,5.000,0
"03/11/08","23:10:36",27198.000,"cc",28328.697,6.00,6,0.100,20148.000,0.200,2282.000,0.300,1867.000,0.500,2180.000,1.000,721.000,5.000,0
"03/11/08","23:10:42",26819.000,"cc",28267.533,6.00,6,0.100,19778.000,0.200,2314.000,0.300,1896.000,0.500,2118.000,1.000,713.000,5.000,0
"03/11/08","23:10:48",27202.000,"cc",28294.947,6.00,6,0.100,20058.000,0.200,2292.000,0.300,1901.000,0.500,2229.000,1.000,722.000,5.000,0
"03/11/08","23:10:54",27012.000,"cc",28402.889,6.00,6,0.100,19959.000,0.200,2311.000,0.300,1785.000,0.500,2237.000,1.000,720.000,5.000,0
"03/11/08","23:11:00",27165.000,"cc",28290.809,6.00,6,0.100,19921.000,0.200,2331.000,0.300,1894.000,0.500,2265.000,1.000,754.000,5.000,0
"03/11/08","23:11:06",27228.000,"cc",28300.727,6.00,6,0.100,20034.000,0.200,2275.000,0.300,1871.000,0.500,2343.000,1.000,705.000,5.000,0
"03/11/08","23:11:12",27087.000,"cc",28367.869,6.00,6,0.100,19787.000,0.200,2318.000,0.300,1903.000,0.500,2339.000,1.000,740.000,5.000,0
"03/11/08","23:11:18",26870.000,"cc",28334.398,6.00,6,0.100,19858.000,0.200,2203.000,0.300,1831.000,0.500,2222.000,1.000,756.000,5.000,0
"03/11/08","23:11:24",27058.000,"cc",28204.320,6.00,6,0.100,19995.000,0.200,2257.000,0.300,1813.000,0.500,2275.000,1.000,718.000,5.000,0
"03/11/08","23:11:30",26966.000,"cc",28320.727,6.00,6,0.100,19926.000,0.200,2342.000,0.300,1785.000,0.500,2232.000,1.000,681.000,5.000,0
"03/11/08","23:11:36",26826.000,"cc",28341.328,6.00,6,0.100,19982.000,0.200,2231.000,0.300,1763.000,0.500,2102.000,1.000,748.000,5.000,0
"03/11/08","23:11:42",27128.000,"cc",28336.268,6.00,6,0.100,20103.000,0.200,2254.000,0.300,1815.000,0.500,2161.000,1.000,795.000,5.000,0
"03/11/08","23:11:48",26837.000,"cc",28404.988,6.00,6,0.100,19867.000,0.200,2236.000,0.300,1746.000,0.500,2239.000,1.000,749.000,5.000,0
"03/11/08","23:11:54",26846.000,"cc",28347.137,6.00,6,0.100,19778.000,0.200,2274.000,0.300,1839.000,0.500,2187.000,1.000,768.000,5.000,0
"03/11/08","23:12:00",26733.000,"cc",28334.258,6.00,6,0.100,19902.000,0.200,2187.000,0.300,1763.000,0.500,2141.000,1.000,740.000,5.000,0
"03/11/08","23:12:06",26900.000,"cc",28252.879,6.00,6,0.100,20028.000,0.200,2210.000,0.300,1770.000,0.500,2162.000,1.000,730.000,5.000,0
"03/11/08","23:12:12",27077.000,"cc",28303.398,6.00,6,0.100,20155.000,0.200,2209.000,0.300,1798.000,0.500,2178.000,1.000,737.000,5.000,0
"03/11/08","23:12:18",26692.000,"cc",28400.674,6.00,6,0.100,19734.000,0.200,2229.000,0.300,1814.000,0.500,2143.000,1.000,772.000,5.000,0
"03/11/08","23:12:24",26728.000,"cc",28314.773,6.00,6,0.100,19793.000,0.200,2198.000,0.300,1785.000,0.500,2166.000,1.000,786.000,5.000,0
"03/11/08","23:12:30",26722.000,"cc",28267.389,6.00,6,0.100,20019.000,0.200,2152.000,0.300,1794.000,0.500,2039.000,1.000,718.000,5.000,0
"03/11/08","23:12:36",26822.000,"cc",28186.523,6.00,6,0.100,19709.000,0.200,2239.000,0.300,1833.000,0.500,2268.000,1.000,773.000,5.000,0
"03/11/08","23:12:42",27028.000,"cc",28339.420,6.00,6,0.100,20067.000,0.200,2238.000,0.300,1769.000,0.500,2234.000,1.000,719.000,5.000,1.000
"03/11/08","23:12:48",26521.000,"cc",28351.148,6.00,6,0.100,19678.000,0.200,2210.000,0.300,1791.000,0.500,2116.000,1.000,726.000,5.000,0
"03/11/08","23:12:54",26835.000,"cc",28364.098,6.00,6,0.100,19947.000,0.200,2259.000,0.300,1793.000,0.500,2119.000,1.000,717.000,5.000,0
"03/11/08","23:13:00",26873.000,"cc",28384.607,6.00,6,0.100,19907.000,0.200,2225.000,0.300,1820.000,0.500,2173.000,1.000,748.000,5.000,0
"03/11/08","23:13:06",26845.000,"cc",28301.553,6.00,6,0.100,19850.000,0.200,2280.000,0.300,1781.000,0.500,2225.000,1.000,709.000,5.000,0
"03/11/08","23:13:12",26810.000,"cc",28248.826,6.00,6,0.100,19817.000,0.200,2279.000,0.300,1784.000,0.500,2207.000,1.000,723.000,5.000,0
"03/11/08","23:13:18",26931.000,"cc",28345.084,6.00,6,0.100,20034.000,0.200,2212.000,0.300,1811.000,0.500,2172.000,1.000,702.000,5.000,0
"03/11/08","23:13:24",26760.000,"cc",28363.619,6.00,6,0.100,19851.000,0.200,2233.000,0.300,1761.000,0.500,2196.000,1.000,719.000,5.000,0
"03/11/08","23:13:30",26974.000,"cc",28314.998,6.00,6,0.100,19942.000,0.200,2208.000,0.300,1808.000,0.500,2238.000,1.000,778.000,5.000,0
"03/11/08","23:13:36",26993.000,"cc",28290.293,6.00,6,0.100,19862.000,0.200,2284.000,0.300,1882.000,0.500,2192.000,1.000,773.000,5.000,0
"03/11/08","23:13:42",26996.000,"cc",28323.338,6.00,6,0.100,19850.000,0.200,2297.000,0.300,1891.000,0.500,2231.000,1.000,727.000,5.000,0
"03/11/08","23:13:48",27185.000,"cc",28331.621,6.00,6,0.100,20167.000,0.200,2174.000,0.300,1853.000,0.500,2196.000,1.000,795.000,5.000,0
"03/11/08","23:13:54",26934.000,"cc",28381.178,6.00,6,0.100,20011.000,0.200,2243.000,0.300,1815.000,0.500,2175.000,1.000,690.000,5.000,0
"03/11/08","23:14:00",26820.000,"cc",28182.334,6.00,6,0.100,19991.000,0.200,2244.000,0.300,1705.000,0.500,2167.000,1.000,713.000,5.000,0
"03/11/08","23:14:06",26742.000,"cc",28283.221,6.00,6,0.100,19736.000,0.200,2267.000,0.300,1806.000,0.500,2181.000,1.000,752.000,5.000,0
"03/11/08","23:14:12",27068.000,"cc",28354.303,6.00,6,0.100,19924.000,0.200,2343.000,0.300,1890.000,0.500,2176.000,1.000,735.000,5.000,0
"03/11/08","23:14:18",27100.000,"cc",28269.711,6.00,6,0.100,20082.000,0.200,2214.000,0.300,1846.000,0.500,2209.000,1.000,749.000,5.000,0
"03/11/08","23:14:24",26646.000,"cc",28335.160,6.00,6,0.100,19725.000,0.200,2205.000,0.300,1802.000,0.500,2175.000,1.000,739.000,5.000,0
"03/11/08","23:14:30",27234.000,"cc",28320.309,6.00,6,0.100,20237.000,0.200,2263.000,0.300,1751.000,0.500,2211.000,1.000,772.000,5.000,0
"03/11/08","23:14:36",26932.000,"cc",28387.818,6.00,6,0.100,19883.000,0.200,2266.000,0.300,1878.000,0.500,2183.000,1.000,722.000,5.000,0
"03/11/08","23:14:42",26936.000,"cc",28329.156,6.00,6,0.100,19962.000,0.200,2293.000,0.300,1851.000,0.500,2096.000,1.000,734.000,5.000,0
"03/11/08","23:14:48",26849.000,"cc",28300.615,6.00,6,0.100,19899.000,0.200,2214.000,0.300,1858.000,0.500,2157.000,1.000,721.000,5.000,0
"03/11/08","23:14:54",26815.000,"cc",28272.006,6.00,6,0.100,19930.000,0.200,2218.000,0.300,1796.000,0.500,2174.000,1.000,697.000,5.000,0
"03/11/08","23:15:00",26897.000,"cc",28349.049,6.00,6,0.100,19926.000,0.200,2291.000,0.300,1856.000,0.500,2140.000,1.000,684.000,5.000,0
"03/11/08","23:15:06",27196.000,"cc",28350.645,6.00,6,0.100,20178.000,0.200,2258.000,0.300,1892.000,0.500,2175.000,1.000,693.000,5.000,0
"03/11/08","23:15:12",26660.000,"cc",28261.656,6.00,6,0.100,19690.000,0.200,2214.000,0.300,1851.000,0.500,2161.000,1.000,744.000,5.000,0
"03/11/08","23:15:18",26537.000,"cc",28359.100,6.00,6,0.100,19455.000,0.200,2293.000,0.300,1896.000,0.500,2160.000,1.000,733.000,5.000,0
"03/11/08","23:15:24",27026.000,"cc",28335.898,6.00,6,0.100,19946.000,0.200,2298.000,0.300,1796.000,0.500,2252.000,1.000,734.000,5.000,0
"03/11/08","23:15:30",26752.000,"cc",28269.920,6.00,6,0.100,19886.000,0.200,2226.000,0.300,1783.000,0.500,2126.000,1.000,731.000,5.000,0
"03/11/08","23:15:36",26670.000,"cc",28279.549,6.00,6,0.100,19740.000,0.200,2204.000,0.300,1825.000,0.500,2194.000,1.000,707.000,5.000,0
"03/11/08","23:15:42",26819.000,"cc",28340.440,6.00,6,0.100,19900.000,0.200,2234.000,0.300,1778.000,0.500,2171.000,1.000,736.000,5.000,0
"03/11/08","23:15:48",26776.000,"cc",28344.029,6.00,6,0.100,19900.000,0.200,2198.000,0.300,1796.000,0.500,2143.000,1.000,739.000,5.000,0
"03/11/08","23:15:54",26997.000,"cc",28353.734,6.00,6,0.100,20165.000,0.200,2283.000,0.300,1727.000,0.500,2142.000,1.000,680.000,5.000,0
"03/11/08","23:16:00",26641.000,"cc",28399.176,6.00,6,0.100,19949.000,0.200,2179.000,0.300,1704.000,0.500,2126.000,1.000,683.000,5.000,0
"03/11/08","23:16:06",26573.000,"cc",28376.947,6.00,6,0.100,19856.000,0.200,2171.000,0.300,1777.000,0.500,2044.000,1.000,725.000,5.000,0
"03/11/08","23:16:12",26818.000,"cc",28275.856,6.00,6,0.100,20253.000,0.200,2153.000,0.300,1724.000,0.500,2034.000,1.000,654.000,5.000,0
"03/11/08","23:16:18",27066.000,"cc",28296.850,6.00,6,0.100,20256.000,0.200,2226.000,0.300,1754.000,0.500,2159.000,1.000,671.000,5.000,0